Wetbulb
45.42 43.31 39.04 40.42 42.70 41.99 38.39 35.10 33.34 37.64 42.47 39.58 38.89 39.84 42.32 43.39 42.23 42.74 43.46 44.24 45.09 46.36 49.37 49.10 48.82 49.02 50.17 56.74 59.24 60.88 60.95 61.54 61.33 59.99 60.09 59.87 59.43 59.80 59.87 60.83 61.60 62.30 62.29 61.97
43.27 40.26 42.45 44.57 43.79 42.43 41.31 39.36 38.10 40.87 42.50 39.88 38.23 39.06 40.91 41.78 42.55 43.54 44.35 44.44 45.83 48.05 48.29 48.73 48.85 47.20 48.23 52.71 57.54 59.49 60.47 61.27 60.88 61.70 61.49 61.76 60.52 61.20 61.17 61.59 61.75 61.75 61.76 61.80
39.51 40.74 43.66 41.83 39.23 38.59 37.98 36.91 36.42 36.99 39.02 39.43 36.18 36.53 38.02 40.81 42.04 43.62 44.17 45.29 46.35 46.81 47.43 47.21 45.92 46.10 45.85 46.18 50.63 56.93 59.20 60.21 60.62 60.97 60.93 60.30 60.91 60.07 60.14 61.24 61.92 62.09 62.14 61.82
40.69 43.36 41.17 39.20 39.93 39.88 36.27 40.15 39.41 37.26 34.56 31.19 34.83 27.87 35.83 38.65 40.97 41.52 41.50 42.66 44.82 45.66 44.45 43.84 44.15 43.90 44.29 44.79 48.90 53.62 56.58 58.04 59.44 60.53 60.14 59.79 60.62 59.79 61.28 61.79 62.28 62.64 62.48 62.14
34.69 38.88 39.06 38.06 39.79 40.21 38.15 39.90 38.47 37.86 34.63 31.56 32.64 31.59 33.39 35.39 35.67 39.00 40.42 41.92 42.59 42.08 41.97 42.87 43.60 43.99 43.39 43.68 43.43 44.21 46.06 47.32 49.60 55.58 58.95 59.62 59.55 60.87 61.55 61.44 60.72 61.48 62.13 62.26
36.70 42.62 41.46 39.84 41.21 41.52 41.63 39.43 38.18 35.18 34.51 29.33 31.35 30.23 31.10 32.35 34.91 35.78 39.12 40.99 41.13 41.61 41.20 41.33 42.08 43.02 42.74 43.34 43.69 44.44 44.72 45.08 45.67 45.98 46.90 50.23 55.21 58.33 59.84 60.64 60.67 61.34 61.93 62.23
37.98 38.22 39.86 42.05 38.25 38.63 40.35 36.45 29.26 27.04 27.97 25.61 30.27 29.50 33.37 37.53 37.04 38.84 39.87 39.62 40.33 39.00 38.72 39.38 39.81 40.39 40.98 40.97 41.58 43.27 43.01 42.90 44.16 44.74 45.02 45.15 46.25 48.46 51.16 54.28 57.15 59.59 60.94 61.64
30.55 28.73 37.70 40.90 38.60 35.17 36.53 35.50 26.07 18.69 20.81 23.41 29.63 26.54 31.76 38.67 40.50 40.55 40.63 40.97 39.02 37.77 38.22 38.44 38.81 39.13 39.36 39.57 39.69 40.07 40.82 41.14 42.04 42.15 42.51 44.39 45.21 46.39 47.83 49.30 50.95 53.05 55.32 58.75
29.19 30.27 36.16 38.30 39.70 39.55 34.50 33.75 37.35 27.48 24.79 26.85 25.83 30.98 35.71 37.75 37.12 37.11 37.14 37.81 36.25 36.52 36.82 36.76 37.48 37.84 38.10 37.85 37.83 37.74 38.56 39.37 39.85 39.20 40.05 41.33 42.91 44.04 45.27 47.47 50.45 52.17 54.06 55.59
33.08 26.19 34.40 37.14 39.61 40.00 38.19 38.73 32.05 32.84 23.56 21.38 26.52 26.01 29.30 33.01 35.65 36.00 35.43 34.89 35.16 35.49 35.51 35.48 35.32 35.31 36.47 36.79 36.78 36.43 36.93 36.12 36.90 37.14 37.70 39.51 41.06 42.55 43.98 45.20 45.55 48.22 51.92 53.04
38.05 33.20 31.86 36.49 35.61 34.68 36.56 35.20 35.14 32.98 32.32 25.32 19.80 24.43 32.68 33.71 35.73 34.49 34.34 35.16 34.80 34.82 33.96 33.63 33.53 33.85 33.72 34.27 34.80 34.45 34.51 33.74 33.75 34.60 35.86 37.12 38.81 40.66 41.26 41.08 42.01 44.04 46.15 47.50
39.70 36.27 28.28 32.00 34.30 36.91 37.91 34.74 35.32 29.45 25.51 29.58 28.12 28.03 38.80 38.04 35.05 35.76 34.72 34.82 34.01 33.57 33.19 32.32 31.59 31.53 31.11 31.06 31.89 32.44 32.47 31.55 32.14 32.16 34.35 35.10 35.79 38.21 36.83 36.56 37.86 40.19 41.28 43.22
39.17 33.85 24.72 30.10 34.04 37.27 35.39 36.57 36.08 35.50 32.62 28.20 26.23 25.66 35.48 34.19 34.14 35.77 34.00 34.10 32.94 32.31 31.77 30.70 29.93 29.28 29.41 28.53 28.90 30.20 29.99 28.59 29.73 30.19 32.54 33.26 33.30 34.20 34.46 33.67 35.12 36.97 37.56 38.81
41.12 34.87 31.06 25.82 26.90 33.84 32.71 34.34 35.89 35.07 30.37 29.00 29.27 28.72 31.23 32.75 32.30 32.71 32.27 31.92 31.50 30.76 30.21 29.02 28.66 27.62 28.22 27.24 26.56 28.63 26.94 26.75 26.83 28.24 30.15 31.06 30.82 31.14 32.47 31.35 32.68 34.30 35.91 36.63
39.24 31.73 32.97 33.14 31.93 32.51 32.51 33.09 34.46 34.02 34.09 30.42 31.21 31.27 35.40 34.98 34.18 33.26 33.15 32.94 31.94 29.13 28.17 27.69 27.60 26.93 26.31 25.42 24.90 26.47 24.59 24.59 24.83 25.93 27.65 28.20 27.97 28.48 28.49 28.07 29.46 31.16 33.69 35.32
38.85 32.65 34.15 30.95 32.56 32.62 31.23 33.63 34.43 35.22 35.17 35.45 33.39 32.11 39.56 40.26 38.51 36.11 34.17 32.00 28.97 27.27 25.93 25.75 25.78 24.50 23.30 22.63 23.02 22.88 21.78 22.35 23.85 24.02 23.75 25.56 23.74 23.64 24.10 25.10 25.87 27.13 30.03 33.52
32.86 31.97 31.33 27.90 31.71 32.39 28.02 32.16 34.26 35.37 37.19 36.57 32.22 35.95 37.72 36.65 33.37 29.54 29.22 28.85 25.58 23.90 23.18 23.31 22.46 22.00 21.28 20.77 20.99 18.83 19.77 21.31 21.42 21.71 22.75 21.33 20.75 20.71 21.44 22.63 23.22 24.08 26.22 29.95
33.85 31.64 32.27 27.29 30.33 22.62 31.20 35.54 37.48 35.61 37.04 38.24 31.78 34.60 36.83 32.61 23.71 22.57 23.41 22.70 20.94 20.96 20.91 20.71 20.31 18.89 19.22 19.28 18.04 18.10 19.21 19.37 19.07 19.34 18.24 18.28 18.38 18.35 19.68 20.17 20.84 21.60 23.48 25.95
38.44 35.09 30.47 26.97 25.64 26.65 26.84 29.51 32.14 33.46 33.04 32.58 32.90 27.26 24.00 22.23 22.64 18.42 20.11 20.28 18.64 19.28 19.04 19.00 18.52 17.49 16.69 15.83 15.99 16.23 17.43 17.00 16.93 15.69 15.60 16.45 16.76 16.90 17.62 17.85 18.38 19.46 21.39 24.43
37.80 38.24 31.61 23.37 22.12 21.58 26.28 27.66 28.12 35.70 26.74 25.86 27.02 24.98 21.71 24.29 24.88 19.24 17.24 18.25 18.08 17.64 17.65 16.59 15.83 15.09 13.96 13.18 14.53 15.17 15.15 14.84 13.38 14.10 14.52 15.14 15.60 15.39 15.07 15.94 17.25 19.11 20.98 23.63
30.78 31.62 29.16 28.13 23.77 26.57 27.52 23.81 26.24 25.78 25.57 22.69 22.93 23.68 23.98 21.20 16.96 16.47 17.21 16.36 16.86 16.30 15.23 14.24 12.64 11.43 11.67 12.52 13.36 13.07 12.80 11.78 12.35 12.47 12.82 12.66 13.24 13.67 15.17 16.39 17.32 17.89 19.45 22.74
30.30 28.93 28.74 24.39 23.34 22.84 16.83 22.95 26.66 21.81 19.54 19.24 17.84 18.20 17.25 16.21 15.59 14.80 14.73 14.84 14.32 12.44 12.40 12.30 10.29 10.20 10.73 12.04 11.17 10.17 9.92 10.59 11.09 10.89 10.08 10.23 11.74 13.71 16.28 15.47 16.74 19.29 21.20 23.56
29.05 29.48 27.96 27.37 24.50 15.56 14.54 15.68 17.54 20.02 17.61 15.98 15.11 16.13 16.13 13.63 12.30 12.75 12.06 11.96 12.27 11.12 10.42 10.54 8.81 8.54 9.22 9.27 9.34 7.51 8.00 9.76 9.55 7.39 7.55 9.69 12.39 14.24 15.00 15.16 16.38 18.06 20.66 24.99
24.58 25.16 22.87 19.07 15.21 13.49 13.02 13.08 14.13 15.03 13.63 13.87 14.00 13.38 14.09 10.89 11.14 10.17 11.34 10.60 10.07 9.78 8.62 8.62 7.33 6.06 5.57 6.88 7.21 6.55 7.55 8.46 5.98 5.74 8.05 11.02 11.33 11.85 13.81 16.18 18.43 20.91 24.96 22.99
19.92 22.15 17.00 12.92 12.70 13.05 13.49 13.29 12.38 11.89 11.84 10.67 11.10 11.53 11.46 10.28 8.15 8.78 9.42 8.99 8.61 8.16 7.42 7.04 5.46 5.56 4.18 4.63 4.20 4.31 6.29 6.34 4.98 6.51 8.63 10.24 11.12 11.29 12.34 14.46 17.12 19.58 21.35 24.09
12.68 17.54 18.71 20.72 14.67 14.45 13.22 12.62 12.83 10.53 9.60 10.05 9.16 8.26 9.41 9.96 8.10 8.86 7.46 7.57 6.84 5.57 5.33 4.34 3.44 2.93 1.49 0.88 1.32 1.91 4.10 4.64 3.98 5.02 7.73 9.11 10.18 10.65 11.60 11.84 12.50 18.75 21.20 22.95
MSLP
1020.61 1020.96 1020.44 1020.80 1020.99 1021.25 1021.57 1021.85 1022.11 1021.93 1021.34 1021.18 1020.40 1019.38 1019.18 1018.73 1018.75 1018.59 1018.25 1017.67 1017.06 1016.32 1015.43 1014.88 1014.62 1014.40 1014.49 1014.37 1014.34 1014.03 1014.35 1014.27 1014.94 1015.31 1015.76 1015.89 1015.77 1015.91 1015.95 1015.90 1016.15 1016.36 1016.59 1016.76
1021.25 1020.42 1020.62 1020.70 1020.89 1021.24 1021.63 1021.98 1022.14 1022.31 1021.88 1021.62 1020.97 1019.02 1018.95 1018.78 1018.36 1018.08 1017.64 1017.09 1016.43 1015.73 1015.12 1014.70 1014.29 1014.30 1014.35 1014.11 1013.96 1013.93 1013.82 1013.93 1014.30 1014.55 1014.80 1015.20 1015.41 1015.47 1015.29 1015.29 1015.43 1015.51 1015.67 1015.79
1020.65 1020.26 1020.21 1020.91 1021.27 1021.70 1021.88 1022.24 1022.64 1022.67 1022.29 1021.59 1021.31 1018.55 1018.43 1017.80 1017.40 1016.88 1016.81 1016.20 1015.70 1015.45 1014.99 1014.60 1014.70 1014.80 1014.29 1014.14 1013.87 1013.83 1013.82 1014.00 1014.25 1014.45 1014.64 1014.91 1015.12 1015.34 1015.00 1014.82 1014.89 1014.82 1014.95 1014.85
1020.98 1020.40 1020.60 1021.03 1021.30 1021.85 1021.91 1022.16 1022.49 1022.92 1022.99 1022.33 1021.53 1019.03 1018.16 1017.69 1016.81 1016.55 1016.26 1015.90 1015.25 1014.87 1014.84 1014.99 1015.09 1015.24 1015.26 1014.91 1014.31 1013.98 1013.94 1014.20 1014.33 1014.36 1014.48 1014.52 1014.73 1014.90 1014.27 1014.39 1014.23 1014.25 1014.32 1014.43
1020.13 1020.04 1020.38 1020.78 1020.91 1021.80 1021.77 1021.93 1022.37 1022.66 1022.87 1022.64 1022.01 1021.76 1016.83 1017.08 1016.73 1015.93 1015.79 1015.38 1015.04 1015.03 1015.16 1015.51 1015.81 1015.93 1016.02 1015.67 1015.36 1015.11 1015.01 1015.15 1015.09 1014.92 1014.91 1014.87 1014.86 1014.55 1014.17 1014.29 1013.91 1013.77 1013.74 1013.56
1020.19 1020.16 1020.25 1020.26 1020.72 1021.10 1021.56 1022.22 1022.49 1022.83 1022.98 1022.31 1021.48 1021.58 1017.60 1017.06 1015.97 1015.78 1015.59 1015.48 1015.58 1015.61 1016.08 1016.63 1016.98 1016.88 1016.71 1016.64 1016.42 1016.34 1016.29 1016.29 1016.19 1015.96 1015.80 1015.69 1015.50 1015.04 1014.56 1014.24 1013.77 1013.51 1013.15 1013.03
1020.13 1020.23 1020.30 1020.34 1020.88 1021.12 1021.52 1022.31 1022.47 1022.84 1022.71 1021.46 1020.59 1020.58 1017.64 1016.46 1015.82 1015.76 1015.69 1015.86 1016.65 1016.96 1017.37 1017.99 1018.25 1017.99 1017.81 1017.85 1017.89 1017.56 1017.44 1017.43 1017.17 1016.74 1016.53 1016.38 1016.02 1015.63 1015.23 1014.58 1014.06 1013.60 1013.03 1012.63
1019.47 1019.87 1019.92 1019.76 1019.84 1020.59 1021.05 1021.72 1021.82 1021.86 1022.24 1021.61 1020.77 1019.42 1016.92 1015.80 1015.51 1015.50 1015.73 1016.01 1017.68 1018.55 1019.01 1019.36 1019.46 1019.25 1019.13 1019.05 1019.01 1018.91 1018.64 1018.52 1018.33 1017.95 1017.54 1017.09 1016.65 1016.22 1015.67 1015.17 1014.36 1013.81 1013.32 1012.53
1018.75 1018.97 1018.73 1018.99 1019.05 1019.64 1020.42 1020.64 1020.57 1021.50 1022.13 1022.11 1020.60 1018.85 1016.86 1016.02 1015.98 1016.08 1016.81 1017.88 1018.75 1019.51 1020.11 1020.46 1020.43 1020.29 1020.29 1020.14 1020.12 1020.01 1019.64 1019.48 1019.18 1019.14 1018.72 1018.08 1017.45 1016.76 1016.18 1015.47 1014.77 1014.13 1013.54 1012.70
1017.54 1018.51 1018.58 1018.82 1019.07 1019.16 1019.11 1019.52 1020.60 1021.27 1021.54 1021.18 1020.17 1019.32 1017.37 1016.49 1016.45 1017.15 1018.22 1019.15 1020.05 1020.78 1021.17 1021.39 1021.36 1021.19 1021.09 1021.16 1021.14 1020.90 1020.75 1020.61 1020.17 1019.75 1019.42 1018.96 1018.44 1017.64 1016.91 1016.18 1015.39 1014.59 1013.73 1012.95
1017.17 1017.90 1018.94 1018.95 1018.14 1018.04 1018.95 1019.11 1019.51 1020.16 1020.55 1020.27 1020.11 1018.21 1016.51 1016.61 1017.00 1017.92 1019.14 1020.05 1020.79 1021.65 1022.09 1022.31 1022.40 1022.38 1022.09 1022.00 1021.90 1021.62 1021.32 1021.12 1020.64 1020.29 1019.78 1019.34 1018.91 1018.46 1017.69 1016.94 1016.21 1015.49 1014.60 1013.55
1016.36 1017.63 1018.26 1017.95 1017.71 1017.67 1017.65 1017.62 1018.40 1019.03 1019.76 1019.75 1019.21 1017.25 1016.71 1016.60 1017.74 1017.09 1019.07 1020.43 1021.27 1022.13 1022.42 1022.88 1023.26 1023.34 1022.87 1022.84 1022.84 1022.32 1022.20 1021.98 1021.52 1021.08 1020.42 1019.77 1019.30 1018.67 1018.32 1017.73 1016.93 1016.18 1015.24 1014.34
1016.07 1016.72 1017.67 1017.72 1018.14 1017.66 1017.34 1017.58 1017.55 1018.01 1018.45 1018.34 1018.83 1017.31 1017.32 1017.51 1018.16 1018.94 1019.46 1020.54 1020.90 1021.89 1022.94 1023.33 1023.51 1023.66 1023.64 1023.91 1023.63 1023.31 1023.26 1022.95 1022.20 1021.57 1020.80 1020.28 1019.52 1018.68 1018.35 1017.87 1017.10 1016.43 1015.68 1014.82
1015.36 1015.73 1015.72 1015.58 1015.74 1016.16 1016.76 1016.60 1016.78 1017.27 1017.48 1016.68 1016.86 1017.16 1017.90 1018.27 1018.72 1019.66 1020.46 1021.18 1021.99 1022.56 1022.97 1023.97 1024.10 1024.58 1024.43 1024.86 1024.70 1024.26 1024.18 1023.88 1023.19 1022.57 1021.93 1021.34 1020.27 1019.32 1018.71 1018.21 1017.36 1016.59 1015.82 1015.03
1015.17 1014.68 1015.59 1015.47 1015.56 1015.36 1015.07 1015.25 1015.74 1015.96 1015.36 1016.46 1015.79 1016.56 1017.11 1018.24 1018.94 1019.65 1020.47 1021.23 1021.94 1023.03 1024.03 1024.08 1024.32 1024.98 1025.21 1025.33 1025.35 1024.90 1025.15 1024.80 1024.17 1023.24 1022.62 1022.15 1021.28 1020.17 1019.42 1018.86 1017.86 1016.91 1015.80 1014.94
1015.16 1014.58 1014.86 1014.82 1015.19 1015.16 1015.12 1014.61 1014.46 1014.58 1014.92 1015.48 1015.88 1016.20 1016.41 1017.91 1019.39 1020.55 1021.28 1022.28 1023.22 1023.92 1024.49 1024.52 1025.44 1026.25 1026.00 1026.07 1025.94 1025.90 1025.80 1025.42 1024.71 1024.02 1023.08 1022.22 1021.47 1020.65 1019.87 1019.27 1018.29 1017.18 1015.98 1014.87
1015.11 1014.66 1013.81 1013.53 1014.19 1014.91 1014.73 1013.08 1013.78 1013.92 1014.48 1014.73 1015.57 1015.43 1017.08 1018.64 1020.23 1021.63 1022.53 1022.88 1023.95 1024.55 1025.32 1026.17 1026.86 1027.25 1027.16 1026.99 1026.67 1026.81 1026.09 1026.09 1025.22 1024.72 1023.84 1023.09 1022.28 1021.25 1020.29 1019.53 1018.74 1017.20 1016.20 1014.91
1013.63 1013.81 1014.18 1013.94 1014.41 1013.71 1012.21 1011.91 1012.41 1013.27 1013.69 1014.86 1015.98 1016.72 1017.53 1019.27 1021.44 1023.15 1024.18 1024.48 1025.19 1025.78 1026.78 1027.39 1027.95 1027.90 1027.95 1027.66 1027.33 1027.17 1026.64 1026.55 1025.74 1024.88 1024.08 1023.13 1022.31 1021.49 1020.48 1019.73 1018.63 1017.56 1016.37 1015.18
1012.82 1012.87 1013.24 1013.56 1013.71 1013.46 1012.87 1012.81 1012.84 1013.14 1013.99 1014.93 1016.29 1018.19 1019.61 1021.05 1022.46 1024.70 1025.48 1026.03 1026.71 1027.27 1028.00 1028.32 1028.50 1028.61 1028.48 1028.56 1028.26 1027.72 1027.37 1026.87 1026.14 1025.24 1024.47 1023.80 1022.88 1021.74 1020.72 1019.63 1018.47 1017.41 1016.12 1014.93
1012.14 1012.22 1012.18 1013.68 1013.70 1013.59 1012.84 1013.35 1013.22 1013.43 1015.48 1016.21 1017.18 1018.99 1020.63 1021.92 1023.95 1025.30 1026.47 1027.08 1027.61 1028.21 1028.70 1029.09 1029.48 1029.56 1029.48 1029.07 1028.46 1027.98 1027.66 1026.72 1026.24 1025.87 1025.34 1024.13 1022.91 1021.84 1020.83 1019.72 1018.46 1017.34 1016.27 1014.53
1011.48 1011.53 1012.02 1013.06 1014.45 1014.91 1014.67 1015.24 1014.97 1016.15 1017.43 1017.75 1018.76 1020.12 1021.55 1022.99 1024.66 1025.91 1027.00 1027.70 1028.35 1028.97 1029.53 1029.85 1029.71 1029.28 1029.19 1029.20 1028.98 1028.62 1028.26 1027.64 1027.28 1026.47 1024.99 1023.78 1022.86 1021.88 1020.71 1019.62 1018.57 1017.16 1015.96 1014.43
1011.29 1011.79 1012.61 1014.20 1015.87 1016.47 1017.16 1017.04 1017.15 1018.14 1019.01 1019.98 1020.99 1021.90 1023.10 1024.55 1025.91 1026.94 1027.70 1028.33 1029.00 1029.60 1029.95 1030.20 1030.34 1030.38 1030.37 1030.26 1030.02 1029.40 1028.58 1027.86 1026.84 1025.71 1024.67 1023.75 1022.68 1021.75 1020.52 1019.45 1018.08 1017.02 1015.46 1013.54
1012.07 1012.60 1013.67 1015.76 1017.28 1018.43 1019.21 1019.45 1019.92 1020.15 1020.84 1022.27 1022.84 1023.79 1024.59 1025.86 1027.03 1027.89 1028.70 1029.43 1030.06 1030.58 1030.95 1031.29 1031.42 1031.33 1031.06 1030.65 1030.08 1029.42 1028.61 1027.67 1026.80 1025.94 1024.93 1023.75 1022.59 1021.49 1020.56 1019.48 1018.23 1016.80 1015.24 1013.80
1014.03 1014.26 1015.36 1017.60 1019.39 1020.48 1021.31 1021.69 1022.15 1022.44 1023.06 1023.88 1024.67 1025.38 1026.08 1027.11 1028.26 1029.14 1029.75 1030.36 1030.88 1031.35 1031.61 1031.75 1031.68 1031.36 1030.90 1030.64 1030.35 1029.96 1029.04 1028.12 1027.23 1026.27 1025.27 1023.86 1022.79 1021.86 1020.77 1019.82 1018.29 1017.09 1015.40 1014.91
1016.11 1016.57 1018.42 1020.50 1021.67 1022.38 1022.97 1023.61 1023.96 1024.25 1024.84 1025.65 1026.46 1026.79 1027.38 1028.30 1029.30 1029.90 1030.52 1031.14 1031.56 1031.91 1032.15 1032.17 1032.01 1031.90 1031.78 1031.29 1030.71 1030.14 1029.33 1028.55 1027.69 1027.10 1025.85 1024.57 1023.71 1022.52 1021.12 1020.36 1019.10 1018.10 1017.12 1016.26
1017.84 1018.80 1019.98 1020.47 1020.49 1021.54 1022.57 1024.02 1024.78 1025.39 1026.19 1026.78 1027.22 1028.24 1028.91 1029.19 1029.89 1030.68 1031.29 1031.67 1032.00 1032.39 1032.60 1032.62 1032.81 1032.70 1032.28 1031.73 1031.11 1030.44 1029.79 1029.25 1028.69 1027.63 1026.51 1025.61 1024.46 1023.27 1021.95 1020.82 1019.41 1018.91 1018.04 1017.14
Wind_Speed
2 5 10 10 12 7 3 3 2 2 5 4 9 15 12 8 5 9 9 9 10 13 14 10 9 9 8 8 9 12 10 12 6 4 6 7 10 7 6 7 10 11 11 12
3 12 8 3 8 12 9 12 16 4 9 5 7 20 10 8 8 8 11 11 13 15 14 13 11 7 7 9 8 8 10 10 9 7 6 5 4 7 7 6 9 11 12 13
13 3 10 8 4 5 5 6 4 9 5 6 6 22 12 7 7 9 8 11 12 15 16 12 8 8 8 7 7 6 7 6 6 7 2 1 1 2 2 6 7 10 14 13
11 12 4 5 12 7 14 7 6 4 2 9 3 15 13 10 17 11 9 11 15 15 8 6 6 4 7 7 7 6 3 2 3 5 5 7 8 8 7 8 7 8 9 10
8 7 13 9 11 8 7 6 9 6 5 5 5 6 10 1 9 14 11 12 12 8 7 2 6 7 7 8 8 9 10 11 9 7 4 3 5 6 5 5 7 8 7 11
3 2 6 6 6 13 3 2 4 3 3 9 6 7 12 4 7 3 5 9 6 6 8 8 7 7 11 11 11 12 11 12 12 10 9 8 6 7 6 6 6 7 7 8
6 6 2 3 4 3 5 4 2 4 6 8 3 7 14 12 5 9 12 3 5 7 10 9 10 12 13 15 13 12 13 14 13 12 12 10 8 7 7 7 7 9 8 7
12 9 13 9 14 8 10 10 6 5 5 5 2 8 8 9 8 8 7 9 9 11 9 10 10 11 12 14 14 14 14 13 14 13 13 11 11 7 6 7 8 7 8 9
9 10 2 3 5 15 6 13 12 2 2 5 5 8 10 8 7 5 4 9 11 9 8 9 10 11 12 12 13 12 12 12 13 13 12 12 11 11 10 12 10 8 10 9
6 1 5 6 3 3 6 7 5 6 6 8 3 6 10 6 7 3 8 11 10 8 10 10 11 12 11 11 10 12 12 12 11 12 11 11 11 11 11 11 12 13 12 13
5 2 2 6 12 16 6 7 3 2 4 2 3 7 7 5 5 10 11 10 11 11 10 10 10 10 10 11 12 12 13 15 15 13 12 12 12 12 12 11 12 13 14 14
19 4 6 14 1 5 16 12 16 6 6 5 2 13 2 3 6 18 14 11 9 8 9 8 8 9 11 12 12 12 13 14 14 13 12 11 11 11 11 12 13 14 15 14
14 9 4 4 3 1 10 11 14 14 2 13 4 6 5 7 9 6 13 9 10 10 8 7 9 10 11 12 13 12 13 14 14 15 14 14 13 14 13 15 14 14 15 15
18 9 12 14 4 10 12 15 18 16 7 12 18 6 4 3 9 8 8 8 8 9 11 7 9 9 9 10 12 11 13 14 15 14 13 14 14 15 14 16 15 15 16 16
13 11 16 17 4 7 11 19 21 21 23 11 11 17 7 10 12 9 8 7 9 8 7 9 10 11 12 12 12 11 13 13 14 13 13 13 14 14 15 15 15 16 15 16
3 7 18 21 11 9 6 16 20 25 23 19 4 7 8 8 7 6 7 8 8 7 9 12 12 11 13 12 13 14 13 14 13 13 13 14 15 15 15 15 16 15 15 15
10 5 4 20 9 8 8 22 19 20 20 20 18 17 3 10 10 6 4 8 9 10 9 9 9 10 11 11 12 13 13 14 13 12 12 13 14 15 15 15 16 15 16 16
10 18 11 4 7 17 11 12 20 23 18 16 3 6 10 11 12 10 8 8 9 9 8 8 8 10 11 12 12 12 12 12 12 12 14 15 16 16 15 16 15 15 14 16
18 15 8 8 10 5 4 6 10 15 15 8 12 8 9 15 8 5 7 8 8 7 6 7 9 11 11 11 12 12 12 12 12 14 14 16 16 17 17 17 17 16 15 16
16 15 11 3 8 12 3 2 4 8 8 9 7 13 16 9 6 4 6 7 7 7 7 8 9 8 8 10 11 12 13 13 15 16 16 15 16 16 17 17 17 16 15 16
15 8 18 11 4 4 2 2 4 11 4 5 6 9 12 5 3 11 8 7 7 7 7 7 8 9 10 11 13 12 12 13 14 15 15 14 15 16 16 16 15 16 17 18
8 7 5 4 1 8 3 0 7 3 6 8 7 7 12 14 11 9 7 7 7 7 8 9 8 9 8 10 10 11 11 14 14 14 14 14 14 13 13 17 14 16 16 16
5 2 6 3 3 4 5 4 5 2 7 5 9 9 11 11 8 7 7 6 5 5 5 5 5 6 7 8 10 12 13 14 15 14 14 13 14 14 14 14 15 14 14 12
2 2 4 5 2 3 4 8 6 8 11 11 10 9 9 11 8 6 6 5 4 4 4 5 6 7 9 10 11 9 12 13 13 14 14 13 14 15 14 12 11 13 6 10
0 3 7 4 3 5 1 6 10 13 13 12 9 9 10 11 8 6 5 4 3 3 5 5 6 7 8 10 10 10 12 13 13 13 12 13 11 12 12 11 11 11 11 14
3 5 5 5 7 2 7 13 13 13 12 10 12 10 8 8 8 7 5 4 4 3 4 5 5 5 7 8 9 10 11 11 11 11 10 11 10 10 10 10 13 18 22 23
Wind_Direction
159 200 210 208 229 240 254 227 285 337 274 306 276 284 289 281 281 270 274 277 278 272 267 270 273 274 262 243 219 217 210 222 193 181 209 220 220 214 211 211 214 208 217 215
147 233 224 252 231 231 240 259 259 255 260 279 268 279 281 268 249 233 248 258 261 274 276 278 278 291 271 258 236 235 219 222 207 209 223 219 204 231 221 216 221 223 225 226
222 168 189 192 201 193 203 217 222 243 293 270 284 279 264 255 244 247 255 251 259 257 267 284 311 299 301 294 277 247 234 238 224 219 169 151 111 270 198 221 227 221 228 228
242 242 152 180 220 189 244 195 210 219 266 271 134 292 274 276 275 259 250 252 258 260 256 272 305 37 23 9 22 19 351 310 261 215 196 196 223 234 232 243 234 238 231 232
224 179 191 199 209 181 242 173 197 199 216 321 201 254 283 61 285 273 247 255 256 277 262 222 103 68 33 23 30 29 39 33 15 4 320 259 252 256 257 248 241 243 230 226
222 356 183 203 176 183 156 156 48 43 155 246 170 192 269 262 232 269 282 289 317 61 73 70 45 42 46 34 32 33 36 34 21 18 14 8 330 307 292 276 264 255 247 240
193 194 188 162 123 110 148 151 237 215 218 254 208 211 250 275 262 244 269 305 59 61 60 54 44 40 42 35 28 33 32 28 16 19 15 1 355 342 324 315 302 292 280 255
199 228 185 180 201 173 198 191 203 213 206 255 52 236 253 240 276 285 288 143 86 62 53 52 43 46 44 38 31 24 24 23 15 10 4 0 358 349 336 333 322 307 297 288
179 232 102 192 154 168 186 209 219 303 117 274 234 283 291 268 309 4 34 89 86 78 61 54 45 43 40 37 32 23 21 20 17 7 358 358 354 353 344 336 331 328 318 314
205 286 211 183 134 162 180 158 163 188 233 232 228 279 242 293 323 29 76 91 79 61 55 47 38 34 32 29 24 24 21 18 7 3 359 353 347 350 347 343 345 337 336 332
171 94 167 131 200 187 178 204 168 138 194 210 228 249 215 234 287 119 95 83 78 64 49 39 32 28 30 24 18 16 14 6 5 359 355 352 350 345 353 350 344 338 332 333
201 180 209 208 177 208 216 223 207 212 204 234 224 264 7 133 184 127 119 108 92 76 67 51 34 22 25 21 10 13 9 1 358 349 347 349 349 348 349 347 341 338 333 330
166 211 210 232 253 142 207 208 206 211 109 217 205 261 10 92 85 83 114 104 106 93 71 50 39 27 22 12 6 5 5 355 352 347 344 343 347 348 345 341 338 336 333 328
165 202 217 222 197 142 207 200 208 207 224 237 226 239 184 134 132 129 112 110 96 69 59 43 38 19 21 9 1 359 356 351 347 344 338 338 343 342 340 334 332 332 330 326
209 227 217 232 251 186 199 206 202 205 218 205 225 213 190 179 166 157 140 118 91 70 50 44 34 13 4 358 352 3 349 343 339 340 336 333 337 333 332 327 326 324 325 324
242 246 211 220 213 209 238 208 205 210 223 233 249 259 198 149 127 137 139 136 125 89 41 31 21 360 358 354 346 349 338 335 334 333 331 337 335 333 330 324 322 319 318 319
230 241 260 220 193 184 234 218 202 213 217 212 219 226 128 143 149 137 126 99 77 62 41 23 8 356 348 347 354 335 335 328 335 330 334 330 326 326 325 322 316 319 316 313
215 220 216 248 184 211 240 180 195 203 210 205 135 166 169 135 96 81 54 82 72 49 31 16 358 351 347 349 348 335 333 330 331 336 333 333 330 324 321 317 316 314 314 312
215 219 209 220 231 325 275 197 174 181 216 183 177 134 119 118 94 64 65 65 68 58 36 17 3 350 348 346 339 333 334 336 339 340 333 328 325 322 321 317 318 315 311 309
222 220 205 137 193 220 216 136 1 94 259 180 158 149 145 153 168 153 106 77 76 56 37 15 355 343 343 345 345 342 343 346 346 336 324 321 321 319 317 315 315 311 307 300
198 223 224 193 200 253 179 299 274 143 239 104 114 134 155 131 51 118 109 90 69 55 28 18 0 357 356 347 347 345 341 343 327 319 319 323 321 318 313 313 312 310 309 304
198 171 194 85 185 240 9 288 171 91 42 102 86 96 98 113 112 103 93 85 66 42 25 16 2 353 348 352 342 338 340 331 327 326 324 324 321 319 318 319 317 314 307 307
199 211 165 164 206 35 5 69 32 67 117 103 105 93 108 112 105 102 96 81 70 48 28 13 350 333 338 348 353 343 334 330 329 327 327 328 329 332 328 325 321 317 316 310
119 355 83 115 154 133 100 66 67 87 101 95 95 97 106 111 114 113 116 98 81 55 27 357 348 347 349 350 341 332 329 333 332 331 331 335 340 336 334 331 328 323 346 353
58 83 119 66 108 91 174 138 127 109 105 103 93 98 112 122 117 120 111 108 85 55 23 7 2 350 335 335 334 335 339 342 342 335 333 339 334 337 337 337 341 345 352 359
188 159 173 202 158 127 135 148 141 130 129 129 124 113 94 113 119 126 112 88 63 41 14 8 349 338 336 334 337 341 345 345 333 335 339 338 334 339 344 345 341 358 2 2